Tracking 22989 objects as of 8-May-2021
HD Live streaming from Space Station
objects crossing your sky now

THORAD AGENA D DEB

Track THORAD AGENA D DEB now!
10-day predictions


NORAD ID: 5958
Int'l Code: 1970-025MP
Perigee: 998.5 km
Apogee: 1,074.8 km
Inclination: 99.5 °
Period: 105.7 minutes
Semi major axis: 7407 km
RCS: 0.0442 m2 (small)
Launch date: April 8, 1970
Source: United States (US)
Launch site: AIR FORCE WESTERN TEST RANGE (AFWTR)

Note: This is SATELLITE DEBRIS
aabbcc
Your satellite tracking list
Your tracking list is empty




NASA's NSSDC Master Catalog

Two Line Element Set (TLE):
1 05958U 70025MP  21127.58539590  .00000166  00000-0  27056-3 0  9994
2 05958  99.5174  51.5154 0051521 194.7757 341.6728 13.61704510520937
Source of the keplerian elements: AFSPC